Good Bye Litespeed [SSG TEAM]

v.1.3

Zona waktu server: Asia/Jakarta

Waktu server saat ini: 2026-05-07 12:29:39


curdir: / / var / www / ftik_pba / public / assetslte / bower_components / select2 / dist / js / i18n / [ GO Home ]

Item NameSizeDatePermissionsViewDeleteRename
. 4096 2023-02-12 18:06:54 0755
.. 4096 2023-02-12 18:06:47 0755
af.js 865 2023-02-12 18:06:49 0644
ar.js 904 2023-02-12 18:06:47 0644
az.js 720 2023-02-12 18:06:48 0644
bg.js 967 2023-02-12 18:06:54 0644
bn.js 1290 2023-02-12 18:06:50 0644
bs.js 964 2023-02-12 18:06:50 0644
ca.js 899 2023-02-12 18:06:52 0644
cs.js 1291 2023-02-12 18:06:48 0644
da.js 827 2023-02-12 18:06:50 0644
de.js 876 2023-02-12 18:06:49 0644
dsb.js 1016 2023-02-12 18:06:53 0644
el.js 1181 2023-02-12 18:06:48 0644
en.js 843 2023-02-12 18:06:52 0644
es.js 921 2023-02-12 18:06:50 0644
et.js 800 2023-02-12 18:06:54 0644
eu.js 867 2023-02-12 18:06:49 0644
fa.js 1022 2023-02-12 18:06:49 0644
fi.js 802 2023-02-12 18:06:51 0644
fr.js 923 2023-02-12 18:06:51 0644
gl.js 923 2023-02-12 18:06:48 0644
he.js 983 2023-02-12 18:06:52 0644
hi.js 1174 2023-02-12 18:06:49 0644
hr.js 851 2023-02-12 18:06:54 0644
hsb.js 1017 2023-02-12 18:06:48 0644
hu.js 830 2023-02-12 18:06:51 0644
hy.js 1027 2023-02-12 18:06:51 0644
id.js 767 2023-02-12 18:06:54 0644
is.js 806 2023-02-12 18:06:52 0644
it.js 896 2023-02-12 18:06:48 0644
ja.js 861 2023-02-12 18:06:54 0644
ka.js 1194 2023-02-12 18:06:53 0644
km.js 1087 2023-02-12 18:06:51 0644
ko.js 854 2023-02-12 18:06:49 0644
lt.js 943 2023-02-12 18:06:49 0644
lv.js 899 2023-02-12 18:06:51 0644
mk.js 1037 2023-02-12 18:06:53 0644
ms.js 810 2023-02-12 18:06:50 0644
nb.js 777 2023-02-12 18:06:53 0644
ne.js 1356 2023-02-12 18:06:48 0644
nl.js 903 2023-02-12 18:06:50 0644
pl.js 946 2023-02-12 18:06:53 0644
ps.js 1048 2023-02-12 18:06:52 0644
pt-BR.js 875 2023-02-12 18:06:48 0644
pt.js 877 2023-02-12 18:06:53 0644
ro.js 937 2023-02-12 18:06:51 0644
ru.js 1170 2023-02-12 18:06:49 0644
sk.js 1305 2023-02-12 18:06:47 0644
sl.js 924 2023-02-12 18:06:51 0644
sq.js 902 2023-02-12 18:06:48 0644
sr-Cyrl.js 1108 2023-02-12 18:06:50 0644
sr.js 979 2023-02-12 18:06:50 0644
sv.js 785 2023-02-12 18:06:52 0644
th.js 1073 2023-02-12 18:06:52 0644
tk.js 770 2023-02-12 18:06:52 0644
tr.js 774 2023-02-12 18:06:50 0644
uk.js 1155 2023-02-12 18:06:51 0644
vi.js 795 2023-02-12 18:06:52 0644
zh-CN.js 767 2023-02-12 18:06:53 0644
zh-TW.js 706 2023-02-12 18:06:53 0644